Hourly Data Report for May 21, 2022

BAGOTVILLE A
QUEBEC
Current Station Operator: DND

48°20'00.000" N
71°00'00.000" W
159.10 m
7060400
71727
YBG

Download Data

Hourly Data (May 2022)
Hourly Data Report for May 21, 2022
TIME
LST
Temp Definition
°C
Dew Point Definition
°C
Rel Hum Definition
%
Precip. Amount Definition
mm

Wind Dir Definition
10's deg

Wind Spd Definition
km/h
Visibility Definition
km
Stn Press Definition
kPa
Hmdx Definition


Wind Chill Definition


Weather Definition


00:00 13.6 8.1 69   9 28 40.2 98.70     LegendNANA
01:00 13.6 8.4 71   9 28 40.2 98.68     LegendNANA
02:00 13.3 8.7 74   9 18 40.2 98.78     LegendNANA
03:00 11.7 9.6 87   12 18 16.1 98.78     Rain Showers
04:00 11.0 10.2 95   11 30 4.8 98.58     Thunderstorms,Moderate Rain Showers
05:00 12.2 11.7 97   12 5 32.2 98.61     LegendNANA
06:00 12.3 11.7 96   9 18 16.1 98.70     Rain Showers
07:00 12.9 12.1 95   11 18 32.2 98.76     LegendNANA
08:00 12.9 12.0 94   9 18 32.2 98.74     Rain Showers
09:00 16.8 14.9 89   12 13 32.2 98.76     LegendNANA
10:00 18.0 15.3 84   9 13 32.2 98.79     LegendNANA
11:00 24.2 17.6 67   22 24 32.2 98.75 30   LegendNANA
12:00 17.3 15.0 86   29 26 40.2 98.90     LegendNANA
13:00 15.3 12.9 86   31 21 32.2 99.08     Rain Showers
14:00 15.1 12.9 87   34 11 32.2 99.13     Rain Showers
15:00 15.2 12.0 81   22 5 32.2 99.17     LegendNANA
16:00 16.1 13.3 83   17 5 40.2 99.21     LegendNANA
17:00 17.1 12.8 76   14 9 40.2 99.27     LegendNANA
18:00 16.6 13.8 84   8 4 40.2 99.31     LegendNANA
19:00 14.3 12.6 90   8 8 40.2 99.29     LegendNANA
20:00 12.2 11.3 94   10 9 40.2 99.30     LegendNANA
21:00 11.3 10.6 95   13 4 40.2 99.42     LegendNANA
22:00 10.3 9.8 97   11 4 32.2 99.50     LegendNANA
23:00 10.7 10.4 98   9 5 40.2 99.56     LegendNANA

Notes on Data Quality.

Legend

  • E = Estimated
  • M = Missing
  • NA = Not Available*
  • [empty] = Indicates an unobserved value
Date modified: